Home   Weather   Fresnillo   Past weeks
Flag for Mexico

Past Weather in Fresnillo, Zacatecas, Mexico — Yesterday and Last 2 Weeks

Now
61 °F

Partly sunny.


Feels Like: 61 °F
Forecast: 74 / 60 °F
Wind: No wind

Location: Zacatecas Airport

Current Time: Aug 25, 2019 at 8:48:43 am

Latest Report: Aug 25, 2019 at 7:46 am


Visibility: 8 mi

Pressure: 30.28 "Hg (23.38 "Hg at 2187m altitude)

Humidity: 88%

Dew Point: 57 °F

Location of FresnilloLocation

Past Weather in Fresnillo — Graph

°F

Fresnillo Temperature Yesterday

Maximum temperature yesterday: 73 °F (at 3:40 pm)
Minimum temperature yesterday: 59 °F (at 4:40 am)
Average temperature yesterday: 64 °F

High & Low Weather Summary for the Past Weeks

 TemperatureHumidityPressure
High84 °F (Aug 18, 4:42 pm)94% (Aug 17, 7:40 am)30.36 "Hg (Aug 17, 7:40 am)
Low55 °F (Aug 10, 7:41 am)21% (Aug 20, 6:57 pm)30.16 "Hg (Aug 18, 6:40 pm)
Average69 °F58%30.27 "Hg
* Reported Aug 10 6:50 am — Aug 25 6:40 am, Fresnillo. Weather by CustomWeather, © 2019

Note: Actual official high and low records may vary slightly from our data, if they occured in-between our weather recording intervals... More about our weather records

Advertising

Fresnillo Weather History for the Previous 24 Hours

Scroll right to see more
 ConditionsComfort  
Time TempWeatherWind HumidityBarometerVisibility
6:40 am
Sun, Aug 25
61 °FPassing clouds.No wind88%30.27 "Hg10 mi
5:40 am61 °FPassing clouds.No wind94%30.26 "Hg10 mi
4:41 am61 °FPassing clouds.No wind88%30.26 "Hg10 mi
2:41 am63 °FPassing clouds.No wind88%30.28 "Hg10 mi
1:40 am63 °FPassing clouds.No wind88%30.29 "Hg10 mi
12:40 am63 °FPassing clouds.No wind88%30.31 "Hg10 mi
11:40 pm
Sat, Aug 24
63 °FPassing clouds.No wind88%30.30 "Hg10 mi
10:43 pm63 °FPassing clouds.6 mph83%30.29 "Hg10 mi
9:40 pm64 °FPassing clouds.No wind78%30.26 "Hg10 mi
8:40 pm64 °FPartly cloudy.No wind83%30.25 "Hg10 mi
7:43 pm64 °FBroken clouds.6 mph83%30.25 "Hg10 mi
6:40 pm66 °FPartly sunny.12 mph73%30.23 "Hg10 mi
5:40 pm70 °FPartly sunny.12 mph64%30.22 "Hg10 mi
4:40 pm73 °FPartly sunny.12 mph57%30.24 "Hg10 mi
3:40 pm73 °FPartly sunny.9 mph57%30.25 "Hg10 mi
2:41 pm72 °FPartly sunny.No wind61%30.27 "Hg10 mi
12:54 pm68 °FPartly sunny.9 mph73%30.30 "Hg10 mi
11:54 am66 °FPartly sunny.12 mph73%30.32 "Hg10 mi
10:42 am63 °FPartly sunny.7 mph83%30.33 "Hg10 mi
9:43 am59 °FOvercast.7 mph88%30.33 "Hg10 mi
Weather by CustomWeather, © 2019

See weather overview